,,Stat1,,Stat2,,Stat3,,Stat4,,Wind1,,Wind1,
time,status,PR1M_SUM,status,RH1M_AVG,status,SR1M_AVG,status,TA1M_AVG,status,W1dAve1m,status,W1sAve1m,
1999-10-02, 00:01:01,VALID,0,VALID,100,VALID,-0.0169808,VALID,19.5835,VALID,217,VALID,1.46496,
1999-10-02, 00:02:00,VALID,0,VALID,100,VALID,0,VALID,19.5778,VALID,212,VALID,1.54916,
1999-10-02, 00:03:00,VALID,0,VALID,100,VALID,-0.0169808,VALID,19.578,VALID,209,VALID,1.48655,
1999-10-02, 00:04:00,VALID,0,VALID,100,VALID,0,VALID,19.5738,VALID,200,VALID,1.04785,
1999-10-02, 00:05:00,VALID,0,VALID,100,VALID,-0.0339617,VALID,19.5743,VALID,189,VALID,1.17045,
1999-10-02, 00:06:00,VALID,0,VALID,100,VALID,-0.0169808,VALID,19.5743,VALID,207,VALID,1.14634,
1999-10-02, 00:07:00,VALID,0,VALID,100,VALID,0,VALID,19.5902,VALID,228,VALID,0.932075,
1999-10-02, 00:08:00,VALID,0,VALID,100,VALID,0.0169808,VALID,19.5892,VALID,222,VALID,1.16934,
1999-10-02, 00:09:00,VALID,0,VALID,100,VALID,0.0339617,VALID,19.6086,VALID,202,VALID,1.25781,
1999-10-02, 00:10:00,VALID,0,VALID,100,VALID,0.0339617,VALID,19.5987,VALID,150,VALID,1.75133,
1999-10-02, 00:11:00,VALID,0,VALID,100,VALID,0.0339617,VALID,19.5962,VALID,145,VALID,1.66406,
1999-10-02, 00:12:00,VALID,0,VALID,100,VALID,0.0509425,VALID,19.5957,VALID,163,VALID,1.34609,
1999-10-02, 00:13:00,VALID,0,VALID,100,VALID,0.0339617,VALID,19.6027,VALID,153,VALID,1.55208,
1999-10-02, 00:14:00,VALID,0,VALID,100,VALID,0.0679233,VALID,19.6017,VALID,164,VALID,1.19226,
1999-10-02, 00:15:00,VALID,0,VALID,100,VALID,0.0509425,VALID,19.6186,VALID,214,VALID,1.07357,
1999-10-02, 00:16:00,VALID,0,VALID,100,VALID,0.0339617,VALID,19.6221,VALID,225,VALID,1.33164,
1999-10-02, 00:17:00,VALID,0,VALID,100,VALID,0.0509425,VALID,19.6119,VALID,193,VALID,1.15412,
1999-10-02, 00:18:00,VALID,0,VALID,100,VALID,0.0339617,VALID,19.6221,VALID,191,VALID,1.13167,
1999-10-02, 00:19:00,VALID,0,VALID,100,VALID,0.0339617,VALID,19.631,VALID,166,VALID,1.1161,
1999-10-02, 00:20:00,VALID,0,VALID,100,VALID,0.0169808,VALID,19.6474,VALID,150,VALID,1.35957,
1999-10-02, 00:21:00,VALID,0,VALID,100,VALID,0.0849042,VALID,19.6537,VALID,140,VALID,1.03883,
1999-10-02, 00:22:01,VALID,0,VALID,100,VALID,0,VALID,19.6569,VALID,144,VALID,0.680831,
1999-10-02, 00:23:00,VALID,0,VALID,100,VALID,-0.0679233,VALID,19.691,VALID,150,VALID,0.783203,
1999-10-02, 00:24:00,VALID,0,VALID,100,VALID,-0.0509425,VALID,19.6551,VALID,181,VALID,0.925195,
1999-10-02, 00:25:00,VALID,0,VALID,100,VALID,-0.0849042,VALID,19.6362,VALID,161,VALID,1.19058,
1999-10-02, 00:26:00,VALID,0,VALID,100,VALID,-0.0849042,VALID,19.6066,VALID,178,VALID,1.05755,
1999-10-02, 00:27:00,VALID,0,VALID,100,VALID,-0.0509425,VALID,19.6136,VALID,156,VALID,1.02756,
1999-10-02, 00:28:00,VALID,0,VALID,100,VALID,-0.0509425,VALID,19.6198,VALID,167,VALID,1.54707,
1999-10-02, 00:29:00,VALID,0,VALID,100,VALID,-0.0679233,VALID,19.6004,VALID,161,VALID,1.69318,
1999-10-02, 00:30:00,VALID,0,VALID,100,VALID,-0.0339617,VALID,19.6036,VALID,171,VALID,1.56193,
1999-10-02, 00:31:00,VALID,0,VALID,100,VALID,-0.0509425,VALID,19.5875,VALID,170,VALID,1.55642,
1999-10-02, 00:32:00,VALID,0,VALID,100,VALID,-0.0509425,VALID,19.5939,VALID,159,VALID,1.31367,
1999-10-02, 00:33:01,VALID,0,VALID,100,VALID,-0.0679233,VALID,19.5974,VALID,168,VALID,1.10204,
1999-10-02, 00:34:00,VALID,0,VALID,100,VALID,-0.0849042,VALID,19.5877,VALID,164,VALID,1.06822,
1999-10-02, 00:35:00,VALID,0,VALID,100,VALID,-0.0509425,VALID,19.6039,VALID,153,VALID,1.18381,
1999-10-02, 00:36:00,VALID,0,VALID,100,VALID,-0.101885,VALID,19.6002,VALID,165,VALID,0.975,
1999-10-02, 00:37:00,VALID,0,VALID,100,VALID,-0.0169808,VALID,19.6131,VALID,198,VALID,0.769413,
1999-10-02, 00:38:00,VALID,0,VALID,100,VALID,0.0509425,VALID,19.6086,VALID,199,VALID,0.858422,
1999-10-02, 00:39:00,VALID,0,VALID,100,VALID,0.0849042,VALID,19.6149,VALID,210,VALID,0.951606,
1999-10-02, 00:40:00,VALID,0,VALID,100,VALID,0.0849042,VALID,19.6116,VALID,210,VALID,0.819727,
1999-10-02, 00:41:00,VALID,0,VALID,100,VALID,0.0509425,VALID,19.6052,VALID,182,VALID,0.774384,
1999-10-02, 00:42:00,VALID,0,VALID,100,VALID,0.0849042,VALID,19.582,VALID,171,VALID,0.628049,
1999-10-02, 00:43:00,VALID,0,VALID,100,VALID,0.0849042,VALID,19.5892,VALID,173,VALID,0.713759,
1999-10-02, 00:44:00,VALID,0,VALID,100,VALID,0.0509425,VALID,19.5823,VALID,161,VALID,0.70918,
1999-10-02, 00:45:00,VALID,0,VALID,100,VALID,0.0509425,VALID,19.5895,VALID,182,VALID,0.70857,
1999-10-02, 00:46:00,VALID,0,VALID,100,VALID,0.0679233,VALID,19.5768,VALID,144,VALID,0.620808,
1999-10-02, 00:47:00,VALID,0,VALID,100,VALID,0.0339617,VALID,19.5765,VALID,184,VALID,0.459418,
1999-10-02, 00:48:00,VALID,0,VALID,100,VALID,0.0509425,VALID,19.5798,VALID,197,VALID,0.514844,
1999-10-02, 00:49:00,VALID,0,VALID,100,VALID,0.0339617,VALID,19.5731,VALID,189,VALID,0.215672,
1999-10-02, 00:50:00,VALID,0,VALID,100,VALID,0.0509425,VALID,19.5731,VALID,189,VALID,0.123857,
1999-10-02, 00:51:00,VALID,0,VALID,100,VALID,0.0339617,VALID,19.5927,VALID,173,VALID,0,
1999-10-02, 00:52:00,VALID,0,VALID,100,VALID,0.0339617,VALID,19.628,VALID,156,VALID,0,
1999-10-02, 00:53:00,VALID,0,VALID,100,VALID,0.0509425,VALID,19.6673,VALID,156,VALID,0,
1999-10-02, 00:54:01,VALID,0,VALID,100,VALID,0.0339617,VALID,19.6964,VALID,156,VALID,0,
1999-10-02, 00:55:00,VALID,0,VALID,100,VALID,0.0509425,VALID,19.6798,VALID,158,VALID,0.508898,
1999-10-02, 00:56:00,VALID,0,VALID,100,VALID,0.0679233,VALID,19.6507,VALID,138,VALID,0.385547,
1999-10-02, 00:57:00,VALID,0,VALID,100,VALID,0.0509425,VALID,19.6275,VALID,149,VALID,0.350852,
1999-10-02, 00:58:00,VALID,0,VALID,100,VALID,0.0509425,VALID,19.6283,VALID,157,VALID,0.505335,
1999-10-02, 00:59:00,VALID,0,VALID,100,VALID,0.0679233,VALID,19.6278,VALID,187,VALID,0.10026,
1999-10-02, 01:00:00,VALID,0,VALID,100,VALID,0.101885,VALID,19.6243,VALID,197,VALID,0.5125,
1999-10-02, 01:01:00,VALID,0,VALID,100,VALID,0.0339617,VALID,19.6086,VALID,212,VALID,0.529593,
1999-10-02, 01:02:00,VALID,0,VALID,100,VALID,0.0339617,VALID,19.6218,VALID,219,VALID,0.549162,
1999-10-02, 01:03:00,VALID,0,VALID,100,VALID,0,VALID,19.6253,VALID,245,VALID,0.728082,
1999-10-02, 01:04:00,VALID,0,VALID,100,VALID,0.0339617,VALID,19.6024,VALID,217,VALID,0.71582,
1999-10-02, 01:05:00,VALID,0,VALID,100,VALID,0.0339617,VALID,19.583,VALID,227,VALID,0.699574,
1999-10-02, 01:06:01,VALID,0,VALID,100,VALID,0.0339617,VALID,19.5703,VALID,226,VALID,0.844131,
1999-10-02, 01:07:00,VALID,0,VALID,100,VALID,0.0169808,VALID,19.5666,VALID,215,VALID,0.749349,
1999-10-02, 01:08:00,VALID,0,VALID,100,VALID,0,VALID,19.5673,VALID,229,VALID,0.470898,
1999-10-02, 01:09:00,VALID,0,VALID,100,VALID,0,VALID,19.581,VALID,201,VALID,1.46259,
1999-10-02, 01:10:00,VALID,0,VALID,100,VALID,0,VALID,19.5514,VALID,208,VALID,0.853087,
1999-10-02, 01:11:00,VALID,0,VALID,100,VALID,-0.0169808,VALID,19.5907,VALID,183,VALID,1.38194,
1999-10-02, 01:12:00,VALID,0,VALID,100,VALID,0,VALID,19.5838,VALID,159,VALID,0.577344,
1999-10-02, 01:13:00,VALID,0,VALID,100,VALID,0,VALID,19.5611,VALID,174,VALID,1.07813,
1999-10-02, 01:14:00,VALID,0,VALID,100,VALID,-0.0169808,VALID,19.5646,VALID,169,VALID,0.832698,
1999-10-02, 01:15:00,VALID,0,VALID,100,VALID,0,VALID,19.5549,VALID,162,VALID,0.979818,
1999-10-02, 01:16:00,VALID,0,VALID,100,VALID,0,VALID,19.5382,VALID,151,VALID,1.1293,
1999-10-02, 01:17:00,VALID,0,VALID,100,VALID,0,VALID,19.5576,VALID,172,VALID,0.504025,
1999-10-02, 01:18:00,VALID,0,VALID,99.8998,VALID,-0.0169808,VALID,19.5417,VALID,201,VALID,1.26143,
1999-10-02, 01:19:00,VALID,0,VALID,99.765,VALID,-0.0169808,VALID,19.5223,VALID,183,VALID,1.25434,
1999-10-02, 01:20:00,VALID,0,VALID,99.5399,VALID,0.0169808,VALID,19.5059,VALID,192,VALID,1.5248,
1999-10-02, 01:21:00,VALID,0,VALID,99.1686,VALID,0,VALID,19.5094,VALID,201,VALID,1.509,
1999-10-02, 01:22:00,VALID,0,VALID,99.0122,VALID,0.0169808,VALID,19.5347,VALID,222,VALID,0.999428,
1999-10-02, 01:23:00,VALID,0,VALID,98.8825,VALID,0,VALID,19.5571,VALID,213,VALID,0.700738,
1999-10-02, 01:24:00,VALID,0,VALID,98.7274,VALID,-0.0339617,VALID,19.5514,VALID,218,VALID,1.01953,
1999-10-02, 01:25:00,VALID,0,VALID,98.3688,VALID,0,VALID,19.539,VALID,211,VALID,1.16525,
1999-10-02, 01:26:00,VALID,0,VALID,97.9275,VALID,0,VALID,19.5323,VALID,223,VALID,1.30602,
1999-10-02, 01:27:00,VALID,0,VALID,97.2752,VALID,0,VALID,19.5385,VALID,242,VALID,1.59484,
1999-10-02, 01:28:00,VALID,0,VALID,97.1163,VALID,0,VALID,19.5706,VALID,223,VALID,0.938477,
1999-10-02, 01:29:00,VALID,0,VALID,97.0959,VALID,-0.0169808,VALID,19.5706,VALID,178,VALID,0.580256,
1999-10-02, 01:30:00,VALID,0,VALID,96.9598,VALID,0,VALID,19.5643,VALID,221,VALID,0.80888,
1999-10-02, 01:31:00,VALID,0,VALID,96.7475,VALID,0,VALID,19.5449,VALID,182,VALID,0.788194,
1999-10-02, 01:32:00,VALID,0,VALID,96.7818,VALID,0,VALID,19.5318,VALID,268,VALID,0.526758,
1999-10-02, 01:33:00,VALID,0,VALID,96.9382,VALID,-0.0169808,VALID,19.5255,VALID,281,VALID,0.273674,
1999-10-02, 01:34:00,VALID,0,VALID,97.0997,VALID,0,VALID,19.5223,VALID,235,VALID,0.357279,
1999-10-02, 01:35:00,VALID,0,VALID,96.9713,VALID,0,VALID,19.5096,VALID,210,VALID,0.486328,
1999-10-02, 01:36:00,VALID,0,VALID,96.9624,VALID,-0.0169808,VALID,19.477,VALID,201,VALID,0.214258,
1999-10-02, 01:37:00,VALID,0,VALID,95.9222,VALID,0,VALID,19.4158,VALID,189,VALID,0.907907,
1999-10-02, 01:38:01,VALID,0,VALID,95.8815,VALID,0,VALID,19.4546,VALID,213,VALID,0.381669,
1999-10-02, 01:39:00,VALID,0,VALID,95.5598,VALID,0,VALID,19.4474,VALID,223,VALID,0.784722,
1999-10-02, 01:40:00,VALID,0,VALID,95.5611,VALID,0,VALID,19.4447,VALID,201,VALID,0.70625,
1999-10-02, 01:41:00,VALID,0,VALID,94.9749,VALID,0,VALID,19.4191,VALID,148,VALID,0.895597,
1999-10-02, 01:42:00,VALID,0,VALID,94.5692,VALID,-0.0169808,VALID,19.4415,VALID,213,VALID,0.902249,
1999-10-02, 01:43:00,VALID,0,VALID,95.1008,VALID,0,VALID,19.4517,VALID,200,VALID,0.248698,
1999-10-02, 01:44:00,VALID,0,VALID,95.5306,VALID,0,VALID,19.4223,VALID,196,VALID,0.0183594,
1999-10-02, 01:45:00,VALID,0,VALID,95.4377,VALID,0,VALID,19.3897,VALID,208,VALID,0.34446,
1999-10-02, 01:46:00,VALID,0,VALID,95.0779,VALID,-0.0679233,VALID,19.3546,VALID,224,VALID,0.604421,
1999-10-02, 01:47:00,VALID,0,VALID,94.9978,VALID,-0.0169808,VALID,19.3479,VALID,213,VALID,0.708767,
1999-10-02, 01:48:00,VALID,0,VALID,95.2165,VALID,0,VALID,19.3352,VALID,230,VALID,0.483594,
1999-10-02, 01:49:00,VALID,0,VALID,95.6882,VALID,0,VALID,19.3449,VALID,227,VALID,0.305871,
1999-10-02, 01:50:01,VALID,0,VALID,95.9019,VALID,-0.0509425,VALID,19.3156,VALID,227,VALID,0.213605,
1999-10-02, 01:51:00,VALID,0,VALID,96.0608,VALID,0.0169808,VALID,19.283,VALID,238,VALID,0.321398,
1999-10-02, 01:52:00,VALID,0,VALID,96.2007,VALID,0,VALID,19.2668,VALID,271,VALID,0.412891,
1999-10-02, 01:53:00,VALID,0,VALID,96.5389,VALID,0,VALID,19.2574,VALID,285,VALID,0.466383,
1999-10-02, 01:54:00,VALID,0,VALID,96.8174,VALID,0,VALID,19.244,VALID,273,VALID,0.278392,
1999-10-02, 01:55:00,VALID,0,VALID,97.1074,VALID,0,VALID,19.2285,VALID,283,VALID,0.675998,
1999-10-02, 01:56:00,VALID,0,VALID,97.2663,VALID,0.0169808,VALID,19.1987,VALID,304,VALID,0.40293,
1999-10-02, 01:57:00,VALID,0,VALID,97.396,VALID,0,VALID,19.1957,VALID,281,VALID,0.291667,
1999-10-02, 01:58:00,VALID,0,VALID,97.5982,VALID,0.0339617,VALID,19.2089,VALID,274,VALID,0.0354421,
1999-10-02, 01:59:00,VALID,0,VALID,97.8551,VALID,0,VALID,19.2089,VALID,275,VALID,0.212674,
1999-10-02, 02:00:00,VALID,0,VALID,97.925,VALID,0,VALID,19.2054,VALID,234,VALID,0.330078,
1999-10-02, 02:01:00,VALID,0,VALID,98.0585,VALID,-0.0169808,VALID,19.1962,VALID,244,VALID,0.710701,
1999-10-02, 02:02:00,VALID,0,VALID,98.117,VALID,0,VALID,19.1701,VALID,264,VALID,0.88205,
1999-10-02, 02:03:00,VALID,0,VALID,98.1844,VALID,0,VALID,19.1763,VALID,261,VALID,0.723524,
1999-10-02, 02:04:00,VALID,0,VALID,98.1882,VALID,-0.0169808,VALID,19.1934,VALID,273,VALID,0.546289,
1999-10-02, 02:05:00,VALID,0,VALID,98.0776,VALID,0,VALID,19.1962,VALID,282,VALID,1.05019,
1999-10-02, 02:06:00,VALID,0,VALID,98.0242,VALID,-0.0339617,VALID,19.2126,VALID,273,VALID,0.550876,
1999-10-02, 02:07:00,VALID,0,VALID,97.9542,VALID,0,VALID,19.2454,VALID,280,VALID,0.697917,
1999-10-02, 02:08:00,VALID,0,VALID,97.6173,VALID,-0.0339617,VALID,19.2447,VALID,267,VALID,0.832031,
1999-10-02, 02:09:00,VALID,0,VALID,97.644,VALID,-0.0169808,VALID,19.2807,VALID,233,VALID,0.585464,
1999-10-02, 02:10:00,VALID,0,VALID,97.808,VALID,-0.0339617,VALID,19.2867,VALID,198,VALID,0.735709,
1999-10-02, 02:11:00,VALID,0,VALID,97.8767,VALID,-0.0339617,VALID,19.2708,VALID,224,VALID,0.600477,
1999-10-02, 02:12:01,VALID,0,VALID,98.014,VALID,-0.0339617,VALID,19.2449,VALID,190,VALID,0.367969,
1999-10-02, 02:13:00,VALID,0,VALID,98.145,VALID,-0.0509425,VALID,19.2191,VALID,202,VALID,0.741004,
1999-10-02, 02:14:00,VALID,0,VALID,98.1539,VALID,-0.0509425,VALID,19.2096,VALID,233,VALID,0.678163,
1999-10-02, 02:15:00,VALID,0,VALID,98.1539,VALID,-0.0679233,VALID,19.2128,VALID,214,VALID,0.820964,
1999-10-02, 02:16:00,VALID,0,VALID,98.1539,VALID,-0.0509425,VALID,19.2061,VALID,209,VALID,0.87207,
1999-10-02, 02:17:00,VALID,0,VALID,98.1361,VALID,0,VALID,19.2059,VALID,223,VALID,0.537642,
1999-10-02, 02:18:00,VALID,0,VALID,98.0433,VALID,-0.0169808,VALID,19.1959,VALID,192,VALID,0.779344,
1999-10-02, 02:19:00,VALID,0,VALID,98.0331,VALID,-0.0679233,VALID,19.2061,VALID,187,VALID,0.567708,
1999-10-02, 02:20:00,VALID,0,VALID,98.0674,VALID,0,VALID,19.1967,VALID,168,VALID,0.685156,
1999-10-02, 02:21:00,VALID,0,VALID,98.1501,VALID,-0.0679233,VALID,19.187,VALID,158,VALID,0.678741,
1999-10-02, 02:22:01,VALID,0,VALID,98.2696,VALID,-0.0339617,VALID,19.1773,VALID,145,VALID,0.911776,
1999-10-02, 02:23:01,VALID,0,VALID,98.4362,VALID,-0.0169808,VALID,19.1606,VALID,147,VALID,0.874566,
1999-10-02, 02:24:00,VALID,0,VALID,98.5087,VALID,0,VALID,19.1574,VALID,160,VALID,0.572461,
1999-10-02, 02:25:00,VALID,0,VALID,98.5481,VALID,-0.0169808,VALID,19.1477,VALID,164,VALID,0.555634,
1999-10-02, 02:26:00,VALID,0,VALID,98.6218,VALID,-0.0339617,VALID,19.1484,VALID,153,VALID,0.489139,
1999-10-02, 02:27:00,VALID,0,VALID,98.7833,VALID,-0.0339617,VALID,19.1611,VALID,143,VALID,0.368273,
1999-10-02, 02:28:00,VALID,0,VALID,98.9321,VALID,-0.0339617,VALID,19.1805,VALID,131,VALID,0.431055,
1999-10-02, 02:29:00,VALID,0,VALID,98.9957,VALID,0,VALID,19.1967,VALID,130,VALID,0.204309,
1999-10-02, 02:30:00,VALID,0,VALID,99.0567,VALID,0,VALID,19.1994,VALID,127,VALID,0.274009,
1999-10-02, 02:31:00,VALID,0,VALID,99.1101,VALID,-0.0169808,VALID,19.2024,VALID,120,VALID,0.179036,
1999-10-02, 02:32:00,VALID,0,VALID,99.0516,VALID,-0.0169808,VALID,19.1964,VALID,120,VALID,0,
1999-10-02, 02:33:00,VALID,0,VALID,98.9575,VALID,-0.0849042,VALID,19.1803,VALID,223,VALID,0.0705492,
1999-10-02, 02:34:01,VALID,0,VALID,98.9296,VALID,-0.0339617,VALID,19.1676,VALID,325,VALID,0.681212,
1999-10-02, 02:35:00,VALID,0,VALID,99.002,VALID,0,VALID,19.1477,VALID,340,VALID,0.371311,
1999-10-02, 02:36:00,VALID,0,VALID,99.0834,VALID,-0.0169808,VALID,19.1576,VALID,321,VALID,0.110742,
1999-10-02, 02:37:00,VALID,0,VALID,99.2157,VALID,-0.0169808,VALID,19.1803,VALID,38,VALID,0.386837,
1999-10-02, 02:38:00,VALID,0,VALID,99.2589,VALID,0.0169808,VALID,19.192,VALID,98,VALID,0.911204,
1999-10-02, 02:39:00,VALID,0,VALID,99.203,VALID,0.101885,VALID,19.1726,VALID,105,VALID,0.888021,
1999-10-02, 02:40:00,VALID,0,VALID,99.0923,VALID,0.0679233,VALID,19.1144,VALID,108,VALID,0.803125,
1999-10-02, 02:41:00,VALID,0,VALID,99.0644,VALID,0.0679233,VALID,19.0846,VALID,112,VALID,0.637074,
1999-10-02, 02:42:00,VALID,0,VALID,99.1216,VALID,0.0679233,VALID,19.0887,VALID,118,VALID,0.401296,
1999-10-02, 02:43:00,VALID,0,VALID,99.1508,VALID,0.0849042,VALID,19.0952,VALID,120,VALID,0.132161,
1999-10-02, 02:44:00,VALID,0,VALID,99.203,VALID,0.101885,VALID,19.0846,VALID,120,VALID,0,
1999-10-02, 02:45:01,VALID,0,VALID,99.2653,VALID,0.0679233,VALID,19.1047,VALID,124,VALID,0,
1999-10-02, 02:46:00,VALID,0,VALID,99.3301,VALID,0.0339617,VALID,19.1081,VALID,142,VALID,0,
1999-10-02, 02:47:00,VALID,0,VALID,99.3975,VALID,0.118866,VALID,19.1268,VALID,132,VALID,0.225477,
1999-10-02, 02:48:00,VALID,0,VALID,99.4484,VALID,0.101885,VALID,19.1234,VALID,127,VALID,0.591602,
1999-10-02, 02:49:00,VALID,0,VALID,99.4827,VALID,0.0679233,VALID,19.1368,VALID,125,VALID,0.62429,
1999-10-02, 02:50:00,VALID,0,VALID,99.498,VALID,0.0679233,VALID,19.1343,VALID,118,VALID,0.602896,
1999-10-02, 02:51:00,VALID,0,VALID,99.5412,VALID,0.101885,VALID,19.1204,VALID,104,VALID,0.623915,
1999-10-02, 02:52:00,VALID,0,VALID,99.62,VALID,0.101885,VALID,19.1432,VALID,95,VALID,0.791602,
1999-10-02, 02:53:00,VALID,0,VALID,99.6251,VALID,0.0169808,VALID,19.1188,VALID,93,VALID,1.03764,
1999-10-02, 02:54:00,VALID,0,VALID,99.648,VALID,0,VALID,19.1096,VALID,89,VALID,0.820503,
1999-10-02, 02:55:00,VALID,0,VALID,99.6925,VALID,0,VALID,19.0989,VALID,118,VALID,0.441406,
1999-10-02, 02:56:01,VALID,0,VALID,99.7307,VALID,0,VALID,19.1126,VALID,121,VALID,0.294727,
1999-10-02, 02:57:00,VALID,0,VALID,99.7383,VALID,0,VALID,19.1126,VALID,122,VALID,0.1134,
1999-10-02, 02:58:00,VALID,0,VALID,99.7739,VALID,-0.0679233,VALID,19.1089,VALID,122,VALID,0,
1999-10-02, 02:59:00,VALID,0,VALID,99.7981,VALID,-0.0339617,VALID,19.1225,VALID,122,VALID,0.0182292,
1999-10-02, 03:00:00,VALID,0,VALID,99.8082,VALID,-0.0169808,VALID,19.1121,VALID,49,VALID,0.262109,
1999-10-02, 03:01:00,VALID,0,VALID,99.7612,VALID,0,VALID,19.0865,VALID,334,VALID,0.596117,
1999-10-02, 03:02:00,VALID,0,VALID,99.7879,VALID,-0.0169808,VALID,19.0738,VALID,319,VALID,0.161966,
1999-10-02, 03:03:00,VALID,0,VALID,99.8438,VALID,-0.0509425,VALID,19.0967,VALID,303,VALID,0.569444,
1999-10-02, 03:04:00,VALID,0,VALID,99.9011,VALID,-0.0169808,VALID,19.1094,VALID,318,VALID,0.672852,
1999-10-02, 03:05:00,VALID,0,VALID,99.9227,VALID,0,VALID,19.1059,VALID,309,VALID,0.306108,
1999-10-02, 03:06:01,VALID,0,VALID,99.9608,VALID,-0.0509425,VALID,19.135,VALID,301,VALID,0.00228659,
1999-10-02, 03:07:01,VALID,0,VALID,99.9944,VALID,-0.0169808,VALID,19.1574,VALID,308,VALID,0.227865,
1999-10-02, 03:08:00,VALID,0,VALID,100,VALID,0.0509425,VALID,19.1955,VALID,52,VALID,0.30918,
1999-10-02, 03:09:00,VALID,0,VALID,100,VALID,0.0679233,VALID,19.2211,VALID,87,VALID,0.0520833,
1999-10-02, 03:10:00,VALID,0,VALID,100,VALID,0.0339617,VALID,19.231,VALID,87,VALID,0,
1999-10-02, 03:11:00,VALID,0,VALID,100,VALID,0.0679233,VALID,19.2308,VALID,93,VALID,0,
1999-10-02, 03:12:00,VALID,0,VALID,100,VALID,0.0679233,VALID,19.2372,VALID,127,VALID,0.123633,
1999-10-02, 03:13:00,VALID,0,VALID,100,VALID,0.0849042,VALID,19.2502,VALID,133,VALID,0.528646,
1999-10-02, 03:14:00,VALID,0,VALID,100,VALID,0.101885,VALID,19.2828,VALID,125,VALID,0.323742,
1999-10-02, 03:15:00,VALID,0,VALID,100,VALID,0.0169808,VALID,19.2925,VALID,117,VALID,0.289931,
1999-10-02, 03:16:00,VALID,0,VALID,100,VALID,0.0679233,VALID,19.2957,VALID,107,VALID,0.497266,
1999-10-02, 03:17:00,VALID,0,VALID,100,VALID,0.101885,VALID,19.2885,VALID,98,VALID,0.211884,
1999-10-02, 03:18:00,VALID,0,VALID,100,VALID,0.0849042,VALID,19.2883,VALID,101,VALID,0,
1999-10-02, 03:19:00,VALID,0,VALID,100,VALID,0.0509425,VALID,19.2728,VALID,101,VALID,0,
1999-10-02, 03:20:00,VALID,0,VALID,100,VALID,0.0679233,VALID,19.2823,VALID,101,VALID,0,
1999-10-02, 03:21:00,VALID,0,VALID,100,VALID,0.101885,VALID,19.2788,VALID,101,VALID,0,
1999-10-02, 03:22:00,VALID,0,VALID,100,VALID,0.0849042,VALID,19.2765,VALID,101,VALID,0,
1999-10-02, 03:23:00,VALID,0,VALID,100,VALID,0.0169808,VALID,19.2807,VALID,101,VALID,0,
1999-10-02, 03:24:00,VALID,0,VALID,100,VALID,-0.0509425,VALID,19.2842,VALID,101,VALID,0,
1999-10-02, 03:25:00,VALID,0,VALID,100,VALID,-0.0849042,VALID,19.284,VALID,101,VALID,0,
1999-10-02, 03:26:00,VALID,0,VALID,100,VALID,-0.0679233,VALID,19.3036,VALID,101,VALID,0,
1999-10-02, 03:27:00,VALID,0,VALID,100,VALID,-0.0509425,VALID,19.3195,VALID,103,VALID,0.205295,
1999-10-02, 03:28:00,VALID,0,VALID,100,VALID,-0.0509425,VALID,19.3489,VALID,106,VALID,0.465234,
1999-10-02, 03:29:00,VALID,0,VALID,100,VALID,-0.0679233,VALID,19.3713,VALID,107,VALID,0.468513,
1999-10-02, 03:30:00,VALID,0,VALID,100,VALID,-0.0679233,VALID,19.381,VALID,103,VALID,0.497904,
1999-10-02, 03:31:00,VALID,0,VALID,100,VALID,-0.0339617,VALID,19.3551,VALID,107,VALID,0.795573,
1999-10-02, 03:32:00,VALID,0,VALID,100,VALID,-0.0339617,VALID,19.3131,VALID,116,VALID,0.514258,
1999-10-02, 03:33:00,VALID,0,VALID,100,VALID,-0.0509425,VALID,19.2909,VALID,118,VALID,0.555634,
1999-10-02, 03:34:00,VALID,0,VALID,100,VALID,-0.0509425,VALID,19.2845,VALID,92,VALID,0.526867,
1999-10-02, 03:35:00,VALID,0,VALID,100,VALID,-0.0339617,VALID,19.2972,VALID,92,VALID,0.426215,
1999-10-02, 03:36:00,VALID,0,VALID,100,VALID,-0.0169808,VALID,19.2967,VALID,94,VALID,0.0128906,
1999-10-02, 03:37:00,VALID,0,VALID,100,VALID,-0.0339617,VALID,19.2999,VALID,108,VALID,0,
1999-10-02, 03:38:01,VALID,0,VALID,100,VALID,-0.0169808,VALID,19.2939,VALID,74,VALID,0,
1999-10-02, 03:39:00,VALID,0,VALID,100,VALID,-0.0679233,VALID,19.2355,VALID,84,VALID,0,
1999-10-02, 03:40:00,VALID,0,VALID,100,VALID,-0.0679233,VALID,19.1964,VALID,85,VALID,0,
1999-10-02, 03:41:00,VALID,0,VALID,100,VALID,-0.0169808,VALID,19.1999,VALID,96,VALID,0,
1999-10-02, 03:42:00,VALID,0,VALID,100,VALID,-0.0169808,VALID,19.2131,VALID,120,VALID,0,
1999-10-02, 03:43:00,VALID,0,VALID,100,VALID,-0.0509425,VALID,19.2195,VALID,113,VALID,0,
1999-10-02, 03:44:00,VALID,0,VALID,100,VALID,-0.0509425,VALID,19.2292,VALID,113,VALID,0,
1999-10-02, 03:45:00,VALID,0,VALID,100,VALID,-0.0339617,VALID,19.2292,VALID,113,VALID,0,
1999-10-02, 03:46:00,VALID,0,VALID,100,VALID,-0.0339617,VALID,19.2415,VALID,113,VALID,0,
1999-10-02, 03:47:00,VALID,0,VALID,100,VALID,-0.0169808,VALID,19.2417,VALID,113,VALID,0,
1999-10-02, 03:48:00,VALID,0,VALID,100,VALID,-0.0169808,VALID,19.2444,VALID,113,VALID,0,
1999-10-02, 03:49:00,VALID,0,VALID,100,VALID,-0.0679233,VALID,19.2479,VALID,113,VALID,0,
1999-10-02, 03:50:01,VALID,0,VALID,100,VALID,0,VALID,19.2218,VALID,113,VALID,0,
1999-10-02, 03:51:00,VALID,0,VALID,100,VALID,-0.0169808,VALID,19.2385,VALID,113,VALID,0,
1999-10-02, 03:52:00,VALID,0,VALID,100,VALID,-0.0339617,VALID,19.2352,VALID,113,VALID,0,
1999-10-02, 03:53:00,VALID,0,VALID,100,VALID,-0.0339617,VALID,19.2357,VALID,113,VALID,0,
1999-10-02, 03:54:00,VALID,0,VALID,100,VALID,-0.0679233,VALID,19.2457,VALID,113,VALID,0,
1999-10-02, 03:55:00,VALID,0,VALID,100,VALID,-0.0509425,VALID,19.2516,VALID,113,VALID,0,
1999-10-02, 03:56:00,VALID,0,VALID,100,VALID,-0.0339617,VALID,19.2613,VALID,113,VALID,0,
1999-10-02, 03:57:00,VALID,0,VALID,100,VALID,-0.0509425,VALID,19.271,VALID,114,VALID,0,
1999-10-02, 03:58:00,VALID,0,VALID,100,VALID,-0.0339617,VALID,19.3004,VALID,125,VALID,0,
1999-10-02, 03:59:00,VALID,0,VALID,100,VALID,-0.0339617,VALID,19.3168,VALID,139,VALID,0.225477,
1999-10-02, 04:00:00,VALID,0,VALID,100,VALID,-0.0849042,VALID,19.3078,VALID,142,VALID,0.612305,
1999-10-02, 04:01:00,VALID,0,VALID,100,VALID,-0.0509425,VALID,19.2743,VALID,132,VALID,0.449811,
1999-10-02, 04:02:00,VALID,0,VALID,100,VALID,-0.0339617,VALID,19.2877,VALID,134,VALID,0.414825,
1999-10-02, 04:03:00,VALID,0,VALID,100,VALID,-0.0849042,VALID,19.2907,VALID,113,VALID,0.375217,
1999-10-02, 04:04:00,VALID,0,VALID,100,VALID,-0.0679233,VALID,19.2907,VALID,145,VALID,0.494727,
1999-10-02, 04:05:00,VALID,0,VALID,100,VALID,-0.0509425,VALID,19.2516,VALID,167,VALID,0.575047,
1999-10-02, 04:06:00,VALID,0,VALID,100,VALID,-0.0169808,VALID,19.2195,VALID,180,VALID,0.713224,
1999-10-02, 04:07:00,VALID,0,VALID,100,VALID,-0.0679233,VALID,19.1867,VALID,184,VALID,0.489583,
1999-10-02, 04:08:00,VALID,0,VALID,100,VALID,-0.0169808,VALID,19.1897,VALID,176,VALID,0.240039,
1999-10-02, 04:09:00,VALID,0,VALID,100,VALID,0,VALID,19.1997,VALID,187,VALID,0.341856,
1999-10-02, 04:10:00,VALID,0,VALID,100,VALID,0,VALID,19.2061,VALID,189,VALID,0.349276,
1999-10-02, 04:11:00,VALID,0,VALID,100,VALID,-0.0169808,VALID,19.2059,VALID,164,VALID,0.484592,
1999-10-02, 04:12:00,VALID,0,VALID,100,VALID,0,VALID,19.2031,VALID,187,VALID,0.752344,